Time,TemperatureF,DewpointF,PressureIn,WindDirection,WindDirectionDegrees,WindSpeedMPH,WindSpeedGustMPH,Humidity,HourlyPrecipIn,Conditions,Clouds,dailyrainin,SoftwareType,DateUTC
2013-06-02 00:08:00,-999.0,-99.9,29.75,North,-999,-999.0,-999.0,-999,-99.99,,,0.00,weatherlink.com 1.10,2013-06-02 04:08:00,
2013-06-02 00:23:00,-999.0,-99.9,29.74,North,-999,-999.0,-999.0,-999,-99.99,,,0.00,weatherlink.com 1.10,2013-06-02 04:23:00,
2013-06-02 00:38:00,-999.0,-99.9,29.73,North,-999,-999.0,-999.0,-999,-99.99,,,0.00,weatherlink.com 1.10,2013-06-02 04:38:00,
2013-06-02 00:53:00,-999.0,-99.9,29.73,North,-999,-999.0,-999.0,-999,-99.99,,,0.00,weatherlink.com 1.10,2013-06-02 04:53:00,
2013-06-02 01:08:00,-999.0,-99.9,29.72,North,-999,-999.0,-999.0,-999,-99.99,,,0.00,weatherlink.com 1.10,2013-06-02 05:08:00,
2013-06-02 01:23:00,-999.0,-99.9,29.71,North,-999,-999.0,-999.0,-999,-99.99,,,0.00,weatherlink.com 1.10,2013-06-02 05:23:00,
2013-06-02 01:38:00,-999.0,-99.9,29.70,North,-999,-999.0,-999.0,-999,-99.99,,,0.00,weatherlink.com 1.10,2013-06-02 05:38:00,
2013-06-02 01:53:00,-999.0,-99.9,29.72,North,-999,-999.0,-999.0,-999,-99.99,,,0.00,weatherlink.com 1.10,2013-06-02 05:53:00,
2013-06-02 02:08:00,-999.0,-99.9,29.71,North,-999,-999.0,-999.0,-999,-99.99,,,0.00,weatherlink.com 1.10,2013-06-02 06:08:00,
2013-06-02 02:23:00,-999.0,-99.9,29.69,North,-999,-999.0,-999.0,-999,-99.99,,,0.00,weatherlink.com 1.10,2013-06-02 06:23:00,
2013-06-02 02:38:00,-999.0,-99.9,29.68,North,-999,-999.0,-999.0,-999,-99.99,,,0.00,weatherlink.com 1.10,2013-06-02 06:38:00,
2013-06-02 02:53:00,-999.0,-99.9,29.68,North,-999,-999.0,-999.0,-999,-99.99,,,0.00,weatherlink.com 1.10,2013-06-02 06:53:00,
2013-06-02 03:08:00,-999.0,-99.9,29.68,North,-999,-999.0,-999.0,-999,-99.99,,,0.00,weatherlink.com 1.10,2013-06-02 07:08:00,
2013-06-02 03:23:00,-999.0,-99.9,29.67,North,-999,-999.0,-999.0,-999,-99.99,,,0.00,weatherlink.com 1.10,2013-06-02 07:23:00,
2013-06-02 03:38:00,-999.0,-99.9,29.65,North,-999,-999.0,-999.0,-999,-99.99,,,0.00,weatherlink.com 1.10,2013-06-02 07:38:00,
2013-06-02 03:53:00,-999.0,-99.9,29.65,North,-999,-999.0,-999.0,-999,-99.99,,,0.00,weatherlink.com 1.10,2013-06-02 07:53:00,
2013-06-02 04:08:00,-999.0,-99.9,29.67,North,-999,-999.0,-999.0,-999,-99.99,,,0.00,weatherlink.com 1.10,2013-06-02 08:08:00,
2013-06-02 04:23:00,-999.0,-99.9,29.65,North,-999,-999.0,-999.0,-999,-99.99,,,0.00,weatherlink.com 1.10,2013-06-02 08:23:00,
2013-06-02 04:38:00,-999.0,-99.9,29.66,North,-999,-999.0,-999.0,-999,-99.99,,,0.00,weatherlink.com 1.10,2013-06-02 08:38:00,
2013-06-02 04:53:00,-999.0,-99.9,29.65,North,-999,-999.0,-999.0,-999,-99.99,,,0.00,weatherlink.com 1.10,2013-06-02 08:53:00,
2013-06-02 05:08:00,-999.0,-99.9,29.71,North,-999,-999.0,-999.0,-999,-99.99,,,0.00,weatherlink.com 1.10,2013-06-02 09:08:00,
2013-06-02 05:23:00,-999.0,-99.9,29.69,North,-999,-999.0,-999.0,-999,-99.99,,,0.00,weatherlink.com 1.10,2013-06-02 09:23:00,
2013-06-02 05:38:00,-999.0,-99.9,29.70,North,-999,-999.0,-999.0,-999,-99.99,,,0.00,weatherlink.com 1.10,2013-06-02 09:38:00,
2013-06-02 05:53:00,-999.0,-99.9,29.68,North,-999,-999.0,-999.0,-999,-99.99,,,0.00,weatherlink.com 1.10,2013-06-02 09:53:00,
2013-06-02 06:08:00,-999.0,-99.9,29.68,North,-999,-999.0,-999.0,-999,-99.99,,,0.00,weatherlink.com 1.10,2013-06-02 10:08:00,
2013-06-02 06:23:00,-999.0,-99.9,29.68,North,-999,-999.0,-999.0,-999,-99.99,,,0.00,weatherlink.com 1.10,2013-06-02 10:23:00,
2013-06-02 06:38:00,-999.0,-99.9,29.69,North,-999,-999.0,-999.0,-999,-99.99,,,0.00,weatherlink.com 1.10,2013-06-02 10:38:00,
2013-06-02 06:53:00,-999.0,-99.9,29.68,North,-999,-999.0,-999.0,-999,-99.99,,,0.00,weatherlink.com 1.10,2013-06-02 10:53:00,
2013-06-02 07:08:00,-999.0,-99.9,29.68,North,-999,-999.0,-999.0,-999,-99.99,,,0.00,weatherlink.com 1.10,2013-06-02 11:08:00,
2013-06-02 07:23:00,-999.0,-99.9,29.68,North,-999,-999.0,-999.0,-999,-99.99,,,0.00,weatherlink.com 1.10,2013-06-02 11:23:00,
2013-06-02 07:38:00,-999.0,-99.9,29.68,North,-999,-999.0,-999.0,-999,-99.99,,,0.00,weatherlink.com 1.10,2013-06-02 11:38:00,
2013-06-02 07:53:00,-999.0,-99.9,29.67,North,-999,-999.0,-999.0,-999,-99.99,,,0.00,weatherlink.com 1.10,2013-06-02 11:53:00,
2013-06-02 08:08:00,-999.0,-99.9,29.67,North,-999,-999.0,-999.0,-999,-99.99,,,0.00,weatherlink.com 1.10,2013-06-02 12:08:00,
2013-06-02 08:23:00,-999.0,-99.9,29.68,North,-999,-999.0,-999.0,-999,-99.99,,,0.00,weatherlink.com 1.10,2013-06-02 12:23:00,
2013-06-02 08:38:00,-999.0,-99.9,29.67,North,-999,-999.0,-999.0,-999,-99.99,,,0.00,weatherlink.com 1.10,2013-06-02 12:38:00,
2013-06-02 08:53:00,-999.0,-99.9,29.66,North,-999,-999.0,-999.0,-999,-99.99,,,0.00,weatherlink.com 1.10,2013-06-02 12:53:00,
2013-06-02 09:08:00,-999.0,-99.9,29.66,North,-999,-999.0,-999.0,-999,-99.99,,,0.00,weatherlink.com 1.10,2013-06-02 13:08:00,
2013-06-02 09:23:00,-999.0,-99.9,29.66,North,-999,-999.0,-999.0,-999,-99.99,,,0.00,weatherlink.com 1.10,2013-06-02 13:23:00,
2013-06-02 09:38:00,-999.0,-99.9,29.67,North,-999,-999.0,-999.0,-999,-99.99,,,0.00,weatherlink.com 1.10,2013-06-02 13:38:00,
2013-06-02 09:53:00,-999.0,-99.9,29.68,North,-999,-999.0,-999.0,-999,-99.99,,,0.00,weatherlink.com 1.10,2013-06-02 13:53:00,
2013-06-02 10:08:00,-999.0,-99.9,29.67,North,-999,-999.0,-999.0,-999,-99.99,,,0.00,weatherlink.com 1.10,2013-06-02 14:08:00,
2013-06-02 10:23:00,-999.0,-99.9,29.67,North,-999,-999.0,-999.0,-999,-99.99,,,0.00,weatherlink.com 1.10,2013-06-02 14:23:00,
2013-06-02 10:38:00,-999.0,-99.9,29.67,North,-999,-999.0,-999.0,-999,-99.99,,,0.00,weatherlink.com 1.10,2013-06-02 14:38:00,
2013-06-02 10:53:00,-999.0,-99.9,29.67,North,-999,-999.0,-999.0,-999,-99.99,,,0.00,weatherlink.com 1.10,2013-06-02 14:53:00,
2013-06-02 11:08:00,-999.0,-99.9,29.67,North,-999,-999.0,-999.0,-999,-99.99,,,0.00,weatherlink.com 1.10,2013-06-02 15:08:00,
2013-06-02 11:23:00,-90.0,-99.9,29.67,WSW,239,2.0,-999.0,-999,-99.99,,,0.00,weatherlink.com 1.10,2013-06-02 15:23:00,
2013-06-02 11:38:00,-90.0,-99.9,29.68,South,176,0.0,-999.0,34,-99.99,,,0.00,weatherlink.com 1.10,2013-06-02 15:38:00,
2013-06-02 11:53:00,79.1,53.0,29.68,WNW,287,5.0,-999.0,40,-99.99,,,0.00,weatherlink.com 1.10,2013-06-02 15:53:00,
2013-06-02 12:08:00,77.9,54.0,29.68,WSW,257,4.0,-999.0,43,-99.99,,,0.00,weatherlink.com 1.10,2013-06-02 16:08:00,
2013-06-02 12:23:00,78.6,55.0,29.68,SW,236,2.0,-999.0,44,-99.99,,,0.00,weatherlink.com 1.10,2013-06-02 16:23:00,
2013-06-02 12:38:00,79.4,56.0,29.68,SW,234,0.0,-999.0,45,-99.99,,,0.00,weatherlink.com 1.10,2013-06-02 16:38:00,
2013-06-02 12:53:00,80.8,59.0,29.67,WSW,256,0.0,-999.0,48,-99.99,,,0.00,weatherlink.com 1.10,2013-06-02 16:53:00,
2013-06-02 13:08:00,78.1,52.0,29.68,WSW,254,5.0,-999.0,41,-99.99,,,0.04,weatherlink.com 1.10,2013-06-02 17:08:00,
2013-06-02 13:23:00,74.4,33.0,29.68,WSW,238,2.0,-999.0,22,-99.99,,,0.04,weatherlink.com 1.10,2013-06-02 17:23:00,
2013-06-02 13:38:00,74.8,35.0,29.69,SW,225,0.0,-999.0,23,-99.99,,,0.04,weatherlink.com 1.10,2013-06-02 17:38:00,
2013-06-02 13:53:00,78.1,48.0,29.69,WSW,245,2.0,-999.0,35,-99.99,,,0.04,weatherlink.com 1.10,2013-06-02 17:53:00,
2013-06-02 14:08:00,78.4,56.0,29.69,SW,218,5.0,-999.0,46,-99.99,,,0.04,weatherlink.com 1.10,2013-06-02 18:08:00,
2013-06-02 14:23:00,78.7,58.0,29.68,WSW,241,4.0,-999.0,49,-99.99,,,0.04,weatherlink.com 1.10,2013-06-02 18:23:00,
2013-06-02 14:38:00,79.1,60.0,29.68,SSW,192,10.0,-999.0,52,-99.99,,,0.04,weatherlink.com 1.10,2013-06-02 18:38:00,
2013-06-02 14:53:00,78.7,60.0,29.68,SW,223,4.0,-999.0,53,-99.99,,,0.04,weatherlink.com 1.10,2013-06-02 18:53:00,
2013-06-02 15:08:00,79.3,61.0,29.69,West,260,6.0,-999.0,53,-99.99,,,0.04,weatherlink.com 1.10,2013-06-02 19:08:00,
2013-06-02 15:23:00,79.3,61.0,29.69,NNW,343,7.0,-999.0,53,-99.99,,,0.04,weatherlink.com 1.10,2013-06-02 19:23:00,
2013-06-02 15:38:00,79.6,61.0,29.69,West,263,7.0,-999.0,54,-99.99,,,0.04,weatherlink.com 1.10,2013-06-02 19:38:00,
2013-06-02 15:53:00,78.9,61.0,29.69,NW,306,5.0,-999.0,54,-99.99,,,0.04,weatherlink.com 1.10,2013-06-02 19:53:00,
2013-06-02 16:08:00,79.4,60.0,29.69,WSW,248,11.0,-999.0,51,-99.99,,,0.04,weatherlink.com 1.10,2013-06-02 20:08:00,
2013-06-02 16:23:00,77.7,60.0,29.69,WSW,241,7.0,-999.0,54,-99.99,,,0.04,weatherlink.com 1.10,2013-06-02 20:23:00,
2013-06-02 16:38:00,77.8,60.0,29.70,West,263,14.0,-999.0,55,-99.99,,,0.04,weatherlink.com 1.10,2013-06-02 20:38:00,
2013-06-02 16:53:00,78.6,60.0,29.69,WSW,240,6.0,-999.0,53,-99.99,,,0.04,weatherlink.com 1.10,2013-06-02 20:53:00,
2013-06-02 17:08:00,78.2,59.0,29.69,West,280,4.0,-999.0,52,-99.99,,,0.04,weatherlink.com 1.10,2013-06-02 21:08:00,
2013-06-02 17:23:00,78.7,60.0,29.70,WSW,245,2.0,-999.0,53,-99.99,,,0.04,weatherlink.com 1.10,2013-06-02 21:23:00,
2013-06-02 17:38:00,78.3,59.0,29.70,WNW,303,12.0,-999.0,52,-99.99,,,0.04,weatherlink.com 1.10,2013-06-02 21:38:00,
2013-06-02 17:53:00,77.9,59.0,29.70,South,188,3.0,-999.0,53,-99.99,,,0.04,weatherlink.com 1.10,2013-06-02 21:53:00,
2013-06-02 18:08:00,76.7,59.0,29.71,WSW,245,9.0,-999.0,55,-99.99,,,0.04,weatherlink.com 1.10,2013-06-02 22:08:00,
2013-06-02 18:23:00,75.0,59.0,29.71,West,263,8.0,-999.0,57,-99.99,,,0.04,weatherlink.com 1.10,2013-06-02 22:23:00,
2013-06-02 18:38:00,74.1,58.0,29.72,West,272,10.0,-999.0,57,-99.99,,,0.04,weatherlink.com 1.10,2013-06-02 22:38:00,
2013-06-02 18:53:00,73.7,58.0,29.73,West,266,0.0,-999.0,58,-99.99,,,0.04,weatherlink.com 1.10,2013-06-02 22:53:00,
2013-06-02 19:08:00,73.5,58.0,29.74,SW,225,5.0,-999.0,58,-99.99,,,0.04,weatherlink.com 1.10,2013-06-02 23:08:00,
2013-06-02 19:23:00,72.8,57.0,29.74,West,268,9.0,-999.0,58,-99.99,,,0.04,weatherlink.com 1.10,2013-06-02 23:23:00,
2013-06-02 19:38:00,72.3,57.0,29.74,West,265,7.0,-999.0,58,-99.99,,,0.04,weatherlink.com 1.10,2013-06-02 23:38:00,
2013-06-02 19:53:00,71.8,56.0,29.74,SW,233,1.0,-999.0,58,-99.99,,,0.04,weatherlink.com 1.10,2013-06-02 23:53:00,
2013-06-02 20:08:00,71.1,55.0,29.75,West,260,0.0,-999.0,58,-99.99,,,0.04,weatherlink.com 1.10,2013-06-03 00:08:00,
2013-06-02 20:23:00,70.3,55.0,29.75,West,272,3.0,-999.0,58,-99.99,,,0.04,weatherlink.com 1.10,2013-06-03 00:23:00,
2013-06-02 20:38:00,69.7,54.0,29.75,West,262,4.0,-999.0,57,-99.99,,,0.04,weatherlink.com 1.10,2013-06-03 00:38:00,
2013-06-02 20:53:00,69.4,53.0,29.76,WSW,246,0.0,-999.0,56,-99.99,,,0.04,weatherlink.com 1.10,2013-06-03 00:53:00,
2013-06-02 21:08:00,68.7,52.0,29.77,West,263,0.0,-999.0,56,-99.99,,,0.04,weatherlink.com 1.10,2013-06-03 01:08:00,
2013-06-02 21:23:00,68.8,51.0,29.77,West,259,0.0,-999.0,54,-99.99,,,0.04,weatherlink.com 1.10,2013-06-03 01:23:00,
2013-06-02 21:38:00,69.1,52.0,29.78,WSW,258,0.0,-999.0,54,-99.99,,,0.04,weatherlink.com 1.10,2013-06-03 01:38:00,
2013-06-02 21:53:00,68.7,51.0,29.79,WSW,257,0.0,-999.0,53,-99.99,,,0.04,weatherlink.com 1.10,2013-06-03 01:53:00,
2013-06-02 22:08:00,69.1,50.0,29.79,SSW,213,0.0,-999.0,51,-99.99,,,0.04,weatherlink.com 1.10,2013-06-03 02:08:00,
2013-06-02 22:23:00,69.3,49.0,29.80,SW,227,0.0,-999.0,49,-99.99,,,0.04,weatherlink.com 1.10,2013-06-03 02:23:00,
2013-06-02 22:38:00,67.9,48.0,29.80,SW,219,1.0,-999.0,49,-99.99,,,0.04,weatherlink.com 1.10,2013-06-03 02:38:00,
2013-06-02 22:53:00,-999.0,-99.9,29.81,North,-999,-999.0,-999.0,-999,-99.99,,,0.04,weatherlink.com 1.10,2013-06-03 02:53:00,
2013-06-02 23:08:00,-999.0,-99.9,29.81,North,-999,-999.0,-999.0,-999,-99.99,,,0.04,weatherlink.com 1.10,2013-06-03 03:08:00,
2013-06-02 23:23:00,-999.0,-99.9,29.82,North,-999,-999.0,-999.0,-999,-99.99,,,0.04,weatherlink.com 1.10,2013-06-03 03:23:00,
2013-06-02 23:38:00,-999.0,-99.9,29.82,North,-999,-999.0,-999.0,-999,-99.99,,,0.04,weatherlink.com 1.10,2013-06-03 03:38:00,
2013-06-02 23:53:00,-999.0,-99.9,29.83,North,-999,-999.0,-999.0,-999,-99.99,,,0.04,weatherlink.com 1.10,2013-06-03 03:53:00,